Location: Cedar Brake
(32.2526°N, 97.8459°W)
Time: 08:40:33
(UTC+00:00)

S3M - Pass Details

Date: 22 April 2026
Orbit: 947 x 1004 km, 83.0° (Epoch: 15 May)

Event Time Altitude Azimuth Distance (km) Brightness Sun altitude
Rises 10:45:00 0° 189° (S) 3,712 6.7 -14.6°
Reaches altitude 10° 10:47:32 10° 191° (S) 2,763 6.0 -14.1°
Maximum altitude 10:53:53 74° 276° (W) 1,034 4.0 -12.9°
Drops below altitude 10° 11:00:12 10° 2° (N) 2,749 6.7 -11.6°
Sets 11:02:43 0° 4° (N) 3,693 7.4 -11.1°
